(413507) = 2014 SE240 = 2005 QD130

Discovered at Kitt Peak on 2005-08-28 by Spacewatch.

Orbit

Orbit type: Main Belt

Note: WebGL enabled browser required.

epoch2023-09-13.0
epoch JD2460200.5
perihelion date2023-08-31.60194
perihelion JD2460188.10194
argument of perihelion (°)216.72995
ascending node (°)140.43020
inclination (°)7.16130
eccentricity0.0556656
perihelion distance (AU)2.5650545
Tisserand w.r.t. Jupiter3.3
ΔV w.r.t. Earth (km/sec)10.2
semimajor axis (AU)2.7162566
mean anomaly (°)2.72961
mean daily motion (°/day)0.22016470
aphelion distance (AU)2.867
period (years)4.48
P-vector [x]0.99580007
P-vector [y]-0.01909971
P-vector [z]-0.08954011
Q-vector [x]0.04556173
Q-vector [y]0.95167663
Q-vector [z]0.30370334
absolute magnitude17.26
phase slope0.15
uncertainty0
referenceMPO 779875
observations used150
oppositions11
arc length (days)6642
first opposition used2005
last opposition used2023
residual rms (arc-secs)0.70
perturbers coarse indicatorM-v
perturbers precise indicator003Ek
first observation date used2005-08-28.0
last observation date used2023-11-04.0
computer nameMPCLINUX
Minimum Orbit Intersection Distances (in AU)
for orbit epoch: 2460200.5, reference: E2023-V42
Mercury2.17973
Venus1.83833
Earth1.56249
Mars1.16689
Jupiter2.39584
Saturn6.31983
Uranus15.5848
Neptune27.2548

Observations

151 total observations over interval: 2005 08 28.33055 – 2023 11 04.344699
These data are available for download (format description).

